Skip Page Navigation
NASA JPL Caltech
NASA Logo - Jet Propulsion Laboratory + View the NASA Portal
+ Center for Near-Earth Object Studies
JPL Home Earth Solar System Stars & Galaxies Technology
JPL Solar System Dynamics
BODIES ORBITS EPHEMERIDES TOOLS PHYSICAL DATA DISCOVERY FAQ SITE MAP
JPL Small-Body Database Browser
Search: [ help ]  
392875 (2012 UO118)
Classification: Main-belt Asteroid          SPK-ID: 2392875
Ephemeris | Orbit Diagram | Orbital Elements | Mission Design | Physical Parameters | Discovery Circumstances | Close-Approach Data ]

[ show orbit diagram ]
Orbital Elements at Epoch 2459000.5 (2020-May-31.0) TDB
Reference: JPL 8 (heliocentric ecliptic J2000)
 Element Value Uncertainty (1-sigma)   Units 
e .02212776855084519 9.8606e-08  
a 2.727781072691463 4.9782e-08 au
q 2.66742136445757 2.5786e-07 au
i 7.195118894336789 1.1638e-05 deg
node 50.22872972703756 6.3953e-05 deg
peri 44.02524415580437 0.0002973 deg
M 206.2860416154848 0.00028871 deg
tp 2459703.124840986130
(2022-May-03.62484099)
0.001325 TDB
period 1645.556105726362
4.51
4.5047e-05
1.233e-07
d
yr
n .2187710274643556 5.9888e-09 deg/d
Q 2.788140780925356 5.0883e-08 au
  Orbit Determination Parameters
   # obs. used (total)      77  
   data-arc span      5652 days (15.47 yr)  
   first obs. used      2003-11-18  
   last obs. used      2019-05-10  
   planetary ephem.      DE431  
   SB-pert. ephem.      SB431-N16  
   condition code      0  
   norm. resid. RMS      .60938  
   source      ORB  
   producer      Otto Matic  
   solution date      2019-May-30 09:55:46  

Additional Information
 Earth MOID = 1.68791 au 
 Jupiter MOID = 2.24422 au 
 T_jup = 3.344 
[ show covariance matrix ]

Ephemeris | Orbit Diagram | Orbital Elements | Mission Design | Physical Parameters | Discovery Circumstances | Close-Approach Data ]

Physical Parameter Table
Parameter Symbol Value Units Sigma Reference Notes
absolute magnitude H 17.2   n/a MPO434457  

392875 (2012 UO118)          Discovered 2003-Nov-18 by Spacewatch at Kitt Peak
Reference: Last Updated: 2014-04-17

[ show close-approach data ]
Ephemeris | Orbit Diagram | Orbital Elements | Mission Design | Physical Parameters | Discovery Circumstances | Close-Approach Data ]
ABOUT SSD CREDITS/AWARDS PRIVACY/COPYRIGHT GLOSSARY LINKS
FirstGov 2020-Aug-14 18:20 UT
(server date/time)  
NASA Home Page
Site Manager:   Ryan S. Park
Webmaster  Alan B. Chamberlin